User: anonymous   Login
Location: Newark
(41.0400°S, 62.7845°W)
Time: 09:05:39
(UTC+00:00)
Language:

STARLINK-3086 - Orbit

View from above orbital plane
View from above orbital plane
View from above satellite
View from above satellite

Ground track
Ground track

The orbit data is extracted from the following two-line orbital elements,

1 49178C 21082BA  22025.19355531 -.00003125  00000-0 -26179-3 0   256
2 49178  69.9968 127.8265 0003849 283.9975 129.9170 14.98341375    11
Epoch (UTC): 25 January 2022 04:38:43
Eccentricity: 0.0003849
inclination: 69.9968°
perigee height: 569 km
apogee height: 575 km
right ascension of ascending node: 127.8265°
argument of perigee: 283.9975°
revolutions per day: 14.98341375
mean anomaly at epoch: 129.9170°
orbit number at epoch: 1

The dashed part of the orbit path shows where the satellite is in the earth's shadow,  

DLR